Location: Kalwaria Zebrzydowska
(49.8686°N, 19.6647°E)
Time: 07:19:06
(UTC+02:00)

ISS - Visible Passes

Search period start: 27 May 2018 00:00
Search period end: 06 June 2018 00:00
Orbit: 402 x 407 km, 51.6° (Epoch: 27 May)

Date Brightness Start Highest point End Pass type
(mag) Time Alt. Az. Time Alt. Az. Time Alt. Az.
27 May -3.9 00:23:20 10° WNW 00:26:26 70° SW 00:26:26 70° SW visible
27 May -3.3 21:54:31 10° W 21:57:46 63° N 22:01:01 10° ENE visible
27 May -3.9 23:31:07 10° WNW 23:34:25 84° NNE 23:35:43 33° E visible
28 May -1.4 01:07:49 10° W 01:08:21 13° W 01:08:21 13° W visible
28 May -3.6 22:38:54 10° WNW 22:42:11 69° N 22:45:05 12° E visible
29 May -2.8 00:15:28 10° W 00:17:43 33° WSW 00:17:43 33° WSW visible
29 May -3.3 21:46:38 10° WNW 21:49:54 62° N 21:53:09 10° E visible
29 May -3.9 23:23:11 10° WNW 23:26:26 64° SSW 23:27:06 49° SSE visible
30 May -3.9 22:30:56 10° WNW 22:34:13 89° SSW 22:36:31 18° ESE visible
31 May -1.9 00:07:43 10° W 00:09:08 19° WSW 00:09:08 19° WSW visible
31 May -3.6 21:38:40 10° WNW 21:41:58 73° NNE 21:45:14 10° E visible
31 May -3.2 23:15:16 10° W 23:18:19 36° SSW 23:18:35 36° SSW visible
01 Jun -3.7 22:22:56 10° WNW 22:26:09 56° SSW 22:28:04 21° SE visible
02 Jun -1.2 00:00:33 10° WSW 00:00:41 10° WSW 00:00:41 10° WSW visible
02 Jun -3.8 21:30:38 10° WNW 21:33:55 80° SSW 21:37:11 10° ESE visible
02 Jun -2.2 23:07:32 10° W 23:10:02 20° SW 23:10:11 20° SW visible
03 Jun -2.8 22:14:58 10° W 22:17:56 31° SSW 22:19:42 18° SSE visible
04 Jun -3.3 21:22:33 10° WNW 21:25:45 48° SSW 21:28:54 10° SE visible
04 Jun -1.3 23:00:52 10° WSW 23:01:35 11° SW 23:01:52 10° SW visible
05 Jun -1.8 22:07:17 10° W 22:09:32 17° SW 22:11:26 12° S visible
